www.pogodaiklimat.ru

Погода и климат >> Архив погоды >> Узбекистан >> Тахтакупыр


ПОГОДА в Тахтакупыре

  • Прогноз погоды в Тахтакупыре
  • Монитор погоды в Тахтакупыре

АРХИВ ПОГОДЫ в Тахтакупыре

Время (UTC), дата Ветер
(напр.,м/с)
 
Видим.   Явления Облачность Т
(С)
Тd
(С)
f
(%)
Тe
(С)
Тes
(С)
Комфортность P
(гПа)
Po
(гПа)
Тmin
(С)
Tmax
(С)
R
(мм)
R24
(мм)
S
(см)
18 18.06 В 1 н/о 10/6 1000 м
[Cu Sc Ac As]
+27.1 +10.2 35 +28 +28 жарко 1007.8 1000.9 +35.6
21 18.06 С 3 н/о 9/4 1000 м
[Cu Sc Ac As Ci fib]
+24.2 +9.0 38 +25 +25 комфорт 1007.6 1000.6
00 19.06 СВ 2 н/о 3/0
[Ac trans Ci fib]
+19.2 +6.1 42 +20 +20 1007.9 1000.8
03 19.06 В 1 20 км 3/0
[Ci fib]
+24.5 +9.3 38 +25 +30 комфорт 1008.4 1001.4
06 19.06 С 2 20 км ясно +30.2 +8.9 27 +30 +46 жарко 1008.3 1001.5 +18.6
12 19.06 В 2 20 км 3/3 1000 м
[Cu hum]
+35.2 +7.8 19 +33 +39 жарко 1006.7 1000.1
15 19.06 С 1 20 км ясно +32.6 +8.5 23 +31 +32 жарко 1007.1 1000.3 +36.6
18 19.06 С 2 н/о ясно +22.9 +8.0 38 +24 +24 комфорт 1007.8 1000.8 +36.6
21 19.06 С 2 н/о ясно +18.8 +6.4 44 +20 +20 1008.3 1001.2
00 20.06 СВ 2 н/о ясно +16.2 +5.9 50 +16 +16 1008.8 1001.7
03 20.06 В 2 20 км ясно +24.9 +10.2 40 +26 +30 жарко 1009.0 1002.0
06 20.06 В 2 20 км ясно +33.5 +10.6 25 +33 +49 жарко 1009.0 1002.2 +15.8
09 20.06 В 4 20 км ясно +35.6 +8.9 20 +34 +47 очень
жарко
1008.1 1001.5
12 20.06 В 4 20 км ясно +36.1 +7.4 17 +34 +40 очень
жарко
1007.2 1000.6
15 20.06 СВ 1 20 км ясно +33.3 +8.9 22 +32 +32 жарко 1006.6 999.8 +37.1
18 20.06 С 1 н/о ясно +22.8 +6.4 35 +23 +23 комфорт 1007.4 1000.4 +37.1
21 20.06 С 1 н/о ясно +20.0 +7.6 45 +22 +22 комфорт 1007.6 1000.5
00 21.06 В 1 н/о ясно +17.3 +8.1 55 +18 +18 1007.7 1000.6
03 21.06 В 1 20 км ясно +26.3 +13.4 45 +28 +33 жарко 1008.2 1001.3
09 21.06 С 2 20 км 5/3 1000 м
[Cu med, cong Ci fib]
+37.8 +9.5 18 +36 +49 очень
жарко
1007.1 1000.5
12 21.06 С 3 20 км 5/5 1000 м
[]
+36.9 +7.1 16 +35 +38 очень
жарко
1007.1 1000.1
15 21.06 С 1 20 км 8/3 1000 м
[Cu med, cong Ac trans Cc]
+33.1 +9.2 23 +32 +32 жарко 1007.2 1000.4 +38.4
18 21.06 СЗ 1 н/о 3/0
[Ci fib]
+24.9 +7.3 32 +25 +25 комфорт 1008.1 1001.1 +38.4
21 21.06 СВ 2 н/о 8/0
[Ac trans Ci fib]
+21.4 +7.6 41 +22 +22 комфорт 1009.2 1002.2
00 22.06 С 1 н/о 6/3 1000 м
[Sc Ac trans Cc]
+19.6 +8.8 50 +22 +22 комфорт 1009.6 1002.5
03 22.06 СВ 2 20 км 4/0
[Ac trans Ci fib]
+27.4 +12.9 41 +29 +32 жарко 1010.9 1004.0
06 22.06 С 3 20 км 3/3 1000 м
[Cu hum]
+34.5 +11.9 25 +34 +44 очень
жарко
1011.6 1004.8 +19.0
12 22.06 С 7 20 км ясно +36.3 +7.4 17 +34 +36 очень
жарко
1010.8 1004.2
15 22.06 С 5 20 км ясно +34.7 +8.9 21 +33 +33 жарко 1011.2 1004.4 +37.7
18 22.06 С 2 н/о ясно +25.6 +8.1 33 +26 +26 жарко 1012.0 1005.1 +37.7
21 22.06 С 2 н/о ясно +22.5 +7.3 38 +23 +23 комфорт 1012.5 1005.5
00 23.06 С 1 н/о ясно +18.7 +8.8 53 +20 +20 1013.2 1006.0
03 23.06 штиль 0 20 км ясно +27.0 +13.0 42 +29 +35 жарко 1014.5 1007.6
06 23.06 СВ 2 20 км ясно +35.6 +13.6 27 +36 +52 опасность
солнечного
удара
1015.0 1008.3 +18.0
09 23.06 В 3 20 км ясно +37.1 +9.9 19 +36 +51 опасность
солнечного
удара
1014.4 1007.7
12 23.06 СВ 3 20 км 3/3 1000 м
[Cu hum]
+37.9 +9.7 18 +36 +41 очень
жарко
1013.5 1006.8
15 23.06 СВ 1 20 км 5/0
[Ac cast Ci sp]
+34.9 +11.2 24 +34 +35 очень
жарко
1013.3 1006.5 +38.9
18 23.06 СВ 2 н/о ясно +24.1 +8.9 38 +25 +25 комфорт 1014.5 1007.4 +38.9
21 23.06 В 2 н/о ясно +24.5 +8.0 35 +25 +25 комфорт 1014.8 1007.7
00 24.06 СВ 1 н/о 3/0
[Ci fib]
+19.9 +8.6 48 +22 +22 комфорт 1015.6 1008.4
03 24.06 В 1 20 км 3/0
[Ci fib]
+28.1 +12.1 37 +29 +34 жарко 1016.0 1009.1
06 24.06 С 1 20 км 3/0
[Ci fib]
+35.3 +11.4 24 +35 +53 опасность
солнечного
удара
1015.9 1009.2 +19.1
09 24.06 В 4 20 км 5/0
[Ac trans Ci fib]
+36.9 +10.4 20 +36 +46 очень
жарко
1015.2 1008.5
12 24.06 В 5 20 км 8/3 1000 м
[Sc Ac trans Ci fib]
+35.3 +8.2 19 +34 +36 очень
жарко
1014.2 1007.5
15 24.06 СВ 1 20 км 8/4 1000 м
[Sc Ac trans Cc]
+32.6 +9.9 25 +32 +32 жарко 1013.6 1006.8 +37.6
21 24.06 штиль 0 н/о ясно +20.1 +11.0 56 +21 +21 комфорт 1013.7 1006.6
03 25.06 штиль 0 20 км 8/0
[Ac trans Cc]
+26.9 +14.2 46 +29 +33 жарко 1014.1 1007.2

 

Местоположение метеостанции Тахтакупыр (Каракалпакстан, Узбекистан): широта 42.48 долгота 59.62 высота над уровнем моря 62 м.

В архиве по умолчанию представлена погода в Тахтакупыре за последнюю неделю. Архивные данные за месяц целиком и за предыдущие месяцы, начиная с января 2011 года, Вы можете получить, выбрав интересующий диапазон дат из раскрывающегося списка и нажав кнопку "Ввод!".


*Определитесь, кто Вы:
робот инопланетянин человек

Внимание! Время в таблицах - всемирное. Для получения местного времени необходимо прибавить поправку, которая равна 5 ч.

Смотрите также архив погоды в соседних городах и на ближайших метеорологических станциях:

Погода в Нукусе (Каракалпакстан, Узбекистан) (3 км)
Погода в Тахиаташе (Каракалпакстан, Узбекистан) (9 км)
Погода в Кенеургенче (Дашогузский велаят, Туркменистан) (45 км)
Погода в Чимбае (Каракалпакстан, Узбекистан) (55 км)
Погода в Дашогузе (Дашогузский велаят, Туркменистан) (83 км)
Погода в Кунграде (Каракалпакстан, Узбекистан) (87 км)
Погода в Гурлене (Хорезмская область, Узбекистан) (95 км)
Погода в Шах-Сенеме (Дашогузский велаят, Туркменистан) (125 км)
Погода в Ургенче (Хорезмская область, Узбекистан) (128 км)
Погода в Хиве (Хорезмская область, Узбекистан) (136 км)

Пояснения к столбцам:

Ветер - указаны скорость ветра в м/с - средняя за 10 мин, порывы в срок и между сроками (в фигурных скобках) и направление, откуда дует ветер: С - северный, СВ - северо-восточный, В - восточный, ЮВ - юго-восточный, Ю - южный, ЮЗ - юго-западный, З - западный, СЗ - северо-западный.
Видимость - горизонтальная дальность видимости в метрах или километрах. При видимости от 1 до 10 км при отсутствии осадков обычно наблюдается дымка, при ухудшении видимости до 1 км и менее - туман. В сухую погоду видимость может ухудшаться дымом, пылью или мглою.
Явления - указаны атмосферные явления, наблюдавшиеся в срок или в последний час перед сроком; фигурными скобками обозначены явления, наблюдавшиеся между сроками (за 1-3 часа до срока); квадратными скобками обозначены град или гололедные отложения с указанием их диаметра в мм.
Облачность - указаны через наклонную черту общая и нижняя облачность в баллах и высота нижней границы облаков в метрах; квадратными скобками обозначены формы облаков: Ci - перистые, Cs - перисто-слоистые, Cc - перисто-кучевые, Ac - высококучевые, As - высокослоистые, Sc - слоисто-кучевые, Ns - слоисто-дождевые, Cu - кучевые, Cb - кучево-дождевые. Подробнее классификацию облаков см. в Атласе облаков (PDF).
T - Температура воздуха - температура, измеренная на высоте 2 м над землей.
Td - Температура точки росы - температура, при понижении до которой содержащийся в воздухе водяной пар достигнет насыщения.
f - Относительная влажность воздуха - влажноcть воздуха, измеренная на высоте 2 м над землей.
Te - Эффективная температура - температура, которую ощущает одетый по сезону человек в тени. Характеристика душности погоды. При расчете учитывается влияние влажности воздуха и скорости ветра на теплоощущения человека.
Tes - Эффективная температура на солнце - температура, которую ощущает человек, с поправкой на солнечный нагрев. Характеристика знойности погоды. Зависит от высоты солнца над горизонтом, облачности и скорости ветра. Ночью, в пасмурную погоду, а также при ветре 12 м/с и более поправка равна нулю.
P - Атмосферное давление - приведенное к уровню моря атмосферное давление.
Po - Атмосферное давление - измеренное на уровне метеостанции атмосферное давление.
Tmin - Минимальная температура - минимум температуры воздуха на высоте 2 м над землей.
Tmax - Максимальная температура - максимум температуры воздуха на высоте 2 м над землей.
R - Количество осадков - Количество выпавших осадков за период времени, мм. При наведении курсора мыши на число - период времени, за который выпало указанное количество осадков.
R24 - Количество осадков - Количество выпавших осадков за 24 часа, мм.
S - Снежный покров - Высота снежного покрова, см. При наведении курсора мыши на число - состояние снежного покрова и степень покрытия местности в баллах.